ARA227 DRRN-DGAA

Flight info

Callsign ARA227
Flight time N/A
Altitude 34000
Route GAPAG1W GAPAG UG855 TAMIL UA603 LITEX LITEX1B
Aircraft B737/M-SDE2E3FGHIRWXY/LB1

Departure

Time N/A
Airport Diori Hamani International Airport (DRRN)

Arrival

Time 2026-04-29 19:15
Airport Kotoka International Airport (DGAA)
Time Latitude Longitude Altitude Speed Heading
2026-04-29 18:27 10.96727 0.29619 33870 ft 464 kts 223°
2026-04-29 18:28 10.94406 0.27322 33867 ft 468 kts 224°
2026-04-29 18:28 10.89752 0.22604 33866 ft 475 kts 224°
2026-04-29 18:29 10.85022 0.17921 33857 ft 479 kts 223°
2026-04-29 18:29 10.80172 0.13204 33861 ft 480 kts 223°
2026-04-29 18:30 10.75375 0.08550 33861 ft 480 kts 223°
2026-04-29 18:30 10.70538 0.03850 33859 ft 480 kts 223°
2026-04-29 18:31 10.65506 -0.00564 33855 ft 478 kts 209°
2026-04-29 18:31 10.62477 -0.01929 33871 ft 477 kts 197°
2026-04-29 18:31 10.59234 -0.02586 33859 ft 476 kts 183°
2026-04-29 18:32 10.52610 -0.02529 33865 ft 476 kts 179°
2026-04-29 18:32 10.42675 -0.02301 33863 ft 477 kts 179°
2026-04-29 18:33 10.36042 -0.02216 33866 ft 477 kts 180°
2026-04-29 18:33 10.29401 -0.02152 33865 ft 477 kts 180°
2026-04-29 18:34 10.23882 -0.02101 33871 ft 477 kts 180°
2026-04-29 18:34 10.16166 -0.02028 33865 ft 477 kts 180°
2026-04-29 18:35 10.09524 -0.01962 33867 ft 477 kts 180°
2026-04-29 18:35 10.02887 -0.01896 33868 ft 477 kts 180°
2026-04-29 18:36 9.96244 -0.01831 33871 ft 477 kts 179°
2026-04-29 18:36 9.89603 -0.01766 33870 ft 477 kts 179°
2026-04-29 18:37 9.82951 -0.01700 33873 ft 477 kts 179°
2026-04-29 18:37 9.76307 -0.01635 33877 ft 478 kts 179°
2026-04-29 18:38 9.69665 -0.01570 33880 ft 478 kts 179°
2026-04-29 18:38 9.63015 -0.01504 33879 ft 478 kts 179°
2026-04-29 18:39 9.56357 -0.01439 33881 ft 478 kts 179°
2026-04-29 18:39 9.49702 -0.01377 33885 ft 479 kts 180°
2026-04-29 18:40 9.43036 -0.01334 33887 ft 479 kts 180°
2026-04-29 18:40 9.36408 -0.01293 33885 ft 480 kts 180°
2026-04-29 18:41 9.23040 -0.01204 33890 ft 481 kts 180°
2026-04-29 18:42 9.16338 -0.01151 33885 ft 481 kts 180°
2026-04-29 18:42 9.09635 -0.01091 33886 ft 482 kts 179°
2026-04-29 18:43 9.02924 -0.01031 33890 ft 482 kts 180°
2026-04-29 18:43 8.96206 -0.00973 33890 ft 483 kts 179°
2026-04-29 18:44 8.89481 -0.00915 33890 ft 483 kts 179°
2026-04-29 18:44 8.82739 -0.00857 33888 ft 484 kts 179°
2026-04-29 18:45 8.76047 -0.00800 33893 ft 484 kts 179°
2026-04-29 18:45 8.69298 -0.00741 33894 ft 485 kts 179°
2026-04-29 18:46 8.62554 -0.00729 33893 ft 485 kts 181°
2026-04-29 18:46 8.55815 -0.01030 33891 ft 485 kts 183°
2026-04-29 18:47 8.49079 -0.01425 33890 ft 485 kts 183°
2026-04-29 18:47 8.42331 -0.01794 33895 ft 485 kts 183°
2026-04-29 18:48 8.35589 -0.02136 33894 ft 485 kts 183°
2026-04-29 18:48 8.28890 -0.02465 33890 ft 485 kts 182°
2026-04-29 18:49 8.22150 -0.02796 33895 ft 484 kts 182°
2026-04-29 18:49 8.15423 -0.03128 33888 ft 484 kts 182°
2026-04-29 18:50 8.08693 -0.03460 33888 ft 484 kts 182°
2026-04-29 18:50 8.01972 -0.03792 33891 ft 483 kts 182°
2026-04-29 18:51 7.95257 -0.04124 33891 ft 483 kts 182°
2026-04-29 18:51 7.88542 -0.04455 33887 ft 483 kts 182°
2026-04-29 18:52 7.81836 -0.04786 33892 ft 482 kts 182°
2026-04-29 18:52 7.75132 -0.05117 33886 ft 482 kts 182°
2026-04-29 18:53 7.68438 -0.05447 33894 ft 482 kts 182°
2026-04-29 18:53 7.61745 -0.05777 33891 ft 481 kts 182°
2026-04-29 18:54 7.55097 -0.06105 33890 ft 481 kts 182°
2026-04-29 18:54 7.48406 -0.06434 33888 ft 481 kts 182°
2026-04-29 18:55 7.41731 -0.06763 33891 ft 480 kts 182°
2026-04-29 18:55 7.35055 -0.07092 33892 ft 480 kts 182°
2026-04-29 18:56 7.28387 -0.07420 33888 ft 479 kts 182°
2026-04-29 18:56 7.21730 -0.07748 33892 ft 478 kts 182°
2026-04-29 18:57 7.15084 -0.08075 33893 ft 477 kts 182°
2026-04-29 18:57 7.08453 -0.08401 33895 ft 477 kts 182°
2026-04-29 18:58 7.05117 -0.08565 33207 ft 486 kts 182°
2026-04-29 18:58 7.01736 -0.08731 32389 ft 485 kts 182°
2026-04-29 18:58 6.98372 -0.08897 31488 ft 485 kts 182°
2026-04-29 18:58 6.94998 -0.09063 30526 ft 487 kts 182°
2026-04-29 18:59 6.91642 -0.09227 29414 ft 490 kts 182°
2026-04-29 18:59 6.88226 -0.09395 28201 ft 492 kts 182°
2026-04-29 18:59 6.84800 -0.09564 26995 ft 494 kts 181°
2026-04-29 18:59 6.81365 -0.09732 25796 ft 495 kts 181°
2026-04-29 19:00 6.77944 -0.09901 24873 ft 490 kts 181°
2026-04-29 19:00 6.74553 -0.10068 23964 ft 485 kts 181°
2026-04-29 19:00 6.71202 -0.10233 23066 ft 479 kts 181°
2026-04-29 19:00 6.67900 -0.10395 22015 ft 473 kts 180°
2026-04-29 19:01 6.64641 -0.10555 21209 ft 463 kts 180°
2026-04-29 19:01 6.61440 -0.10544 20255 ft 457 kts 173°
2026-04-29 19:01 6.58301 -0.10268 19342 ft 450 kts 171°
2026-04-29 19:01 6.55213 -0.09914 18586 ft 441 kts 170°
2026-04-29 19:02 6.52165 -0.09550 17636 ft 438 kts 170°
2026-04-29 19:02 6.50177 -0.09319 17075 ft 432 kts 170°
2026-04-29 19:02 6.46199 -0.08881 15911 ft 424 kts 171°
2026-04-29 19:02 6.43264 -0.08576 14979 ft 422 kts 171°
2026-04-29 19:03 6.40406 -0.08288 14142 ft 417 kts 171°
2026-04-29 19:03 6.37505 -0.08000 13368 ft 409 kts 171°
2026-04-29 19:03 6.34672 -0.07720 12455 ft 407 kts 171°
2026-04-29 19:03 6.31919 -0.07448 11566 ft 402 kts 171°
2026-04-29 19:04 6.29126 -0.07172 10985 ft 392 kts 171°
2026-04-29 19:04 6.26500 -0.06914 10712 ft 375 kts 171°
2026-04-29 19:04 6.23966 -0.06666 10531 ft 357 kts 170°
2026-04-29 19:04 6.21553 -0.06428 10370 ft 340 kts 169°
2026-04-29 19:05 6.19250 -0.06199 10230 ft 325 kts 170°
2026-04-29 19:05 6.17046 -0.05979 10088 ft 311 kts 169°
2026-04-29 19:05 6.14942 -0.05769 9931 ft 297 kts 169°
2026-04-29 19:05 6.12939 -0.05582 9798 ft 285 kts 168°
2026-04-29 19:06 6.10952 -0.05379 9364 ft 286 kts 169°
2026-04-29 19:06 6.08973 -0.05176 8982 ft 285 kts 169°
2026-04-29 19:06 6.05040 -0.04782 8240 ft 282 kts 170°
2026-04-29 19:07 6.03115 -0.04592 7895 ft 281 kts 171°
2026-04-29 19:07 6.02458 -0.04527 7768 ft 280 kts 171°
2026-04-29 19:07 5.99221 -0.04208 7176 ft 278 kts 171°
2026-04-29 19:07 5.97947 -0.04082 6943 ft 277 kts 172°
2026-04-29 19:08 5.96038 -0.03894 6586 ft 275 kts 171°
2026-04-29 19:08 5.94140 -0.03706 6227 ft 273 kts 172°
2026-04-29 19:08 5.91643 -0.03883 5732 ft 275 kts 197°
2026-04-29 19:08 5.90449 -0.04359 5555 ft 272 kts 201°
2026-04-29 19:09 5.88152 -0.05328 5127 ft 269 kts 201°
2026-04-29 19:09 5.86435 -0.06046 4829 ft 266 kts 201°
2026-04-29 19:09 5.85283 -0.06524 4632 ft 265 kts 201°
2026-04-29 19:09 5.83038 -0.07453 4213 ft 262 kts 201°
2026-04-29 19:10 5.81920 -0.07914 4022 ft 260 kts 201°
2026-04-29 19:10 5.80280 -0.08589 3724 ft 258 kts 201°
2026-04-29 19:10 5.78630 -0.09268 3442 ft 255 kts 202°
2026-04-29 19:10 5.77037 -0.09924 3164 ft 237 kts 202°
2026-04-29 19:11 5.75604 -0.10514 3001 ft 210 kts 201°
2026-04-29 19:11 5.74334 -0.11037 2835 ft 186 kts 202°
2026-04-29 19:11 5.73204 -0.11502 2654 ft 165 kts 202°
2026-04-29 19:11 5.72193 -0.11918 2456 ft 152 kts 202°
2026-04-29 19:12 5.71221 -0.12318 2307 ft 147 kts 202°
2026-04-29 19:12 5.70280 -0.12705 2045 ft 142 kts 202°
2026-04-29 19:12 5.69428 -0.13064 1885 ft 124 kts 203°
2026-04-29 19:12 5.68863 -0.13313 1764 ft 139 kts 202°
2026-04-29 19:13 5.67655 -0.13812 1550 ft 141 kts 202°
2026-04-29 19:13 5.66734 -0.14188 1331 ft 144 kts 202°
2026-04-29 19:13 5.65827 -0.14566 1142 ft 139 kts 202°
2026-04-29 19:13 5.64951 -0.14930 920 ft 134 kts 203°
2026-04-29 19:14 5.64085 -0.15275 728 ft 135 kts 202°
2026-04-29 19:14 5.63208 -0.15633 608 ft 138 kts 202°
2026-04-29 19:14 5.62330 -0.15989 412 ft 143 kts 203°
2026-04-29 19:14 5.61404 -0.16363 244 ft 143 kts 203°
2026-04-29 19:15 5.60551 -0.16715 204 ft 111 kts 203°
2026-04-29 19:15 5.60039 -0.16921 204 ft 48 kts 207°
2026-04-29 19:15 5.59835 -0.17120 191 ft 23 kts 232°
2026-04-29 19:15 5.59884 -0.17191 200 ft 17 kts 12°
2026-04-29 19:16 5.59993 -0.17151 196 ft 16 kts 21°
2026-04-29 19:16 5.60094 -0.17106 204 ft 15 kts 18°
2026-04-29 19:16 5.60153 -0.17168 207 ft 10 kts 292°
2026-04-29 19:16 5.60162 -0.17191 212 ft 0 kts 291°